Weather History for Cross City, FL

Change the Weather History Date:

Sunday, October 28, 2012

  Actual Average Record
Temperature  
Mean Temperature 58 °F 67 °F  
Max Temperature 65 °F 80 °F 90 °F (2010)
Min Temperature 50 °F 54 °F 35 °F (2001)
Degree Days  
Heating Degree Days 7 2  
Month to date heating degree days 7 25  
Since 1 July heating degree days 7 25  
Cooling Degree Days 0 4  
Month to date cooling degree days 252 189  
Year to date cooling degree days 2780 2531  
Growing Degree Days 9 (Base 50)    
Moisture  
Dew Point 52 °F    
Average Humidity 78    
Maximum Humidity 93    
Minimum Humidity 67    
Precipitation  
Precipitation 0.00 in 0.10 in 0.29 in (2006)
Month to date precipitation 3.38 3.14  
Year to date precipitation 57.15 42.97  
Sea Level Pressure  
Sea Level Pressure 29.78 in    
Wind  
Wind Speed 8 mph (NW)    
Max Wind Speed 16 mph    
Max Gust Speed 24 mph    
T = Trace of Precipitation, MM = Missing Value Source: NWS Daily Summary

Daily Weather History Graph

Daily Weather History Graph

Search for Another Location

Airport:

Trip Planner

Search our weather history database for the weather conditions in past years. The results will help you decide how hot, cold, wet, or windy it might be!

Date:

Astronomy

Oct. 28, 2012 Rise Set
Actual Time 7:43 AM EDT 6:48 PM EDT
Civil Twilight 7:18 AM EDT 7:13 PM EDT
Nautical Twilight 6:50 AM EDT 7:41 PM EDT
Astronomical Twilight 6:22 AM EDT 8:09 PM EDT
Moon 6:05 PM EDT (10/28) 6:37 AM EDT (10/28)
Length of Visible Light 11h 54m
Length of Day
11h 05m
Waxing Gibbous, 99% of the Moon is Illuminated
Oct 28
Waxing Gibbous
Oct 29
Full
Nov 6
Last Quarter
Nov 13
New
Nov 20
First Quarter

Hourly Weather History & Observations

Time (EDT) Temp. Dew Point Humidity Pressure Visibility Wind Dir Wind Speed Gust Speed Precip Events Conditions
12:53 AM 64.0 °F 57.9 °F 80% 29.74 in - NW 6.9 mph - N/A   Unknown
1:53 AM 62.1 °F 57.0 °F 84% 29.74 in - NW 8.1 mph - N/A   Unknown
2:53 AM 61.0 °F 55.9 °F 83% 29.73 in - NW 6.9 mph - N/A   Unknown
3:53 AM 59.0 °F 55.0 °F 87% 29.74 in - NW 6.9 mph - N/A   Unknown
4:53 AM 57.9 °F 53.1 °F 84% 29.75 in - Variable 5.8 mph - N/A   Unknown
5:53 AM 55.9 °F 52.0 °F 87% 29.75 in - NW 5.8 mph - N/A   Unknown
6:53 AM 54.0 °F 51.1 °F 90% 29.75 in - WNW 4.6 mph - N/A   Unknown
7:53 AM 54.0 °F 51.1 °F 90% 29.77 in - WNW 5.8 mph - N/A   Unknown
8:53 AM 55.0 °F 51.1 °F 86% 29.80 in - NW 9.2 mph - N/A   Unknown
9:53 AM 57.0 °F 51.1 °F 81% 29.81 in - NW 11.5 mph 17.3 mph N/A   Unknown
10:53 AM 57.9 °F 51.1 °F 78% 29.82 in - NW 13.8 mph - N/A   Unknown
11:53 AM 61.0 °F 52.0 °F 72% 29.80 in - NNW 9.2 mph 18.4 mph N/A   Unknown
12:53 PM 63.0 °F 53.1 °F 70% 29.78 in - NW 9.2 mph - N/A   Unknown
1:53 PM 64.0 °F 53.1 °F 67% 29.75 in - WNW 9.2 mph - N/A   Unknown
2:53 PM 64.0 °F 54.0 °F 70% 29.74 in - NW 9.2 mph - N/A   Unknown
3:53 PM 62.1 °F 53.1 °F 72% 29.74 in - WNW 6.9 mph - N/A   Unknown
4:53 PM 60.1 °F 52.0 °F 75% 29.75 in - WNW 10.4 mph - N/A   Unknown
5:53 PM 57.9 °F 51.1 °F 78% 29.76 in - NW 10.4 mph - N/A   Unknown
6:53 PM 57.0 °F 50.0 °F 77% 29.78 in - NW 11.5 mph - N/A   Unknown
7:53 PM 57.0 °F 50.0 °F 77% 29.81 in - NW 9.2 mph - N/A   Unknown
8:53 PM 57.0 °F 48.9 °F 74% 29.82 in - NW 11.5 mph - N/A   Unknown
9:53 PM 57.0 °F 46.9 °F 69% 29.84 in - NW 9.2 mph 16.1 mph N/A   Unknown
10:53 PM 54.0 °F 46.0 °F 75% 29.85 in - NW 6.9 mph - N/A   Unknown
11:53 PM 51.1 °F 46.0 °F 83% 29.85 in - West 4.6 mph - N/A   Unknown